Time,TemperatureF,DewpointF,PressureIn,WindDirection,WindDirectionDegrees,WindSpeedMPH,WindSpeedGustMPH,Humidity,HourlyPrecipIn,Conditions,Clouds,dailyrainin,SolarRadiationWatts/m^2,SoftwareType,DateUTC
2013-03-02 00:01:00,32.0,30.0,-100.00,East,80,2.0,7.0,93,0.00,,,0.02,1.000000,,2013-03-02 07:01:00,
2013-03-02 00:11:00,32.0,30.0,-100.00,East,80,2.0,7.0,93,0.00,,,0.02,1.000000,,2013-03-02 07:11:00,
2013-03-02 00:32:00,32.0,30.0,-100.00,East,84,3.0,9.0,91,0.00,,,0.02,1.000000,,2013-03-02 07:32:00,
2013-03-02 00:42:00,32.0,30.0,-100.00,East,84,3.0,9.0,91,0.00,,,0.02,1.000000,,2013-03-02 07:42:00,
2013-03-02 00:52:00,32.0,30.0,-100.00,East,84,3.0,9.0,91,0.00,,,0.02,1.000000,,2013-03-02 07:52:00,
2013-03-02 01:01:00,32.0,30.0,-100.00,East,84,3.0,9.0,91,0.00,,,0.02,1.000000,,2013-03-02 08:01:00,
2013-03-02 01:11:00,32.0,30.0,-100.00,East,84,3.0,9.0,91,0.00,,,0.02,1.000000,,2013-03-02 08:11:00,
2013-03-02 01:32:00,31.0,29.0,-100.00,East,87,4.0,7.0,92,0.00,,,0.02,1.000000,,2013-03-02 08:32:00,
2013-03-02 01:42:00,31.0,29.0,-100.00,East,87,4.0,7.0,92,0.00,,,0.02,1.000000,,2013-03-02 08:42:00,
2013-03-02 01:52:00,31.0,29.0,-100.00,East,87,4.0,7.0,92,0.00,,,0.02,1.000000,,2013-03-02 08:52:00,
2013-03-02 02:01:00,31.0,29.0,-100.00,East,87,4.0,7.0,92,0.00,,,0.02,1.000000,,2013-03-02 09:01:00,
2013-03-02 02:11:00,31.0,29.0,-100.00,East,87,4.0,7.0,92,0.00,,,0.02,1.000000,,2013-03-02 09:11:00,
2013-03-02 02:14:00,29.0,28.0,-100.00,ESE,116,2.0,4.0,95,0.00,,,0.02,1.000000,,2013-03-02 09:14:00,
2013-03-02 02:32:00,29.0,28.0,-100.00,ESE,116,2.0,4.0,95,0.00,,,0.02,1.000000,,2013-03-02 09:32:00,
2013-03-02 02:42:00,29.0,28.0,-100.00,ESE,116,2.0,4.0,95,0.00,,,0.02,1.000000,,2013-03-02 09:42:00,
2013-03-02 02:52:00,29.0,28.0,-100.00,ESE,116,2.0,4.0,95,0.00,,,0.02,1.000000,,2013-03-02 09:52:00,
2013-03-02 03:01:00,29.0,28.0,-100.00,ESE,116,2.0,4.0,95,0.00,,,0.02,1.000000,,2013-03-02 10:01:00,
2013-03-02 03:32:00,29.0,28.0,-100.00,ESE,112,3.0,5.0,95,0.00,,,0.01,1.000000,,2013-03-02 10:32:00,
2013-03-02 03:43:00,29.0,28.0,-100.00,ESE,112,3.0,5.0,95,0.00,,,0.01,1.000000,,2013-03-02 10:43:00,
2013-03-02 03:52:00,29.0,28.0,-100.00,ESE,112,3.0,5.0,95,0.00,,,0.01,1.000000,,2013-03-02 10:52:00,
2013-03-02 04:01:00,29.0,28.0,-100.00,ESE,112,3.0,5.0,95,0.00,,,0.01,1.000000,,2013-03-02 11:01:00,
2013-03-02 04:11:00,29.0,28.0,-100.00,ESE,112,3.0,5.0,95,0.00,,,0.01,1.000000,,2013-03-02 11:11:00,
2013-03-02 04:32:00,29.0,27.0,-100.00,ESE,107,2.0,6.0,92,0.00,,,0.01,1.000000,,2013-03-02 11:32:00,
2013-03-02 04:42:00,29.0,27.0,-100.00,ESE,107,2.0,6.0,92,0.00,,,0.01,1.000000,,2013-03-02 11:42:00,
2013-03-02 04:52:00,29.0,27.0,-100.00,ESE,107,2.0,6.0,92,0.00,,,0.01,1.000000,,2013-03-02 11:52:00,
2013-03-02 05:02:00,29.0,27.0,-100.00,ESE,107,2.0,6.0,92,0.00,,,0.01,1.000000,,2013-03-02 12:02:00,
2013-03-02 05:11:00,29.0,27.0,-100.00,ESE,107,2.0,6.0,92,0.00,,,0.01,1.000000,,2013-03-02 12:11:00,
2013-03-02 05:33:00,29.0,27.0,-100.00,East,95,2.0,7.0,92,0.00,,,0.01,1.000000,,2013-03-02 12:33:00,
2013-03-02 05:43:00,29.0,27.0,-100.00,East,95,2.0,7.0,92,0.00,,,0.01,1.000000,,2013-03-02 12:43:00,
2013-03-02 05:53:00,29.0,27.0,-100.00,East,95,2.0,7.0,92,0.00,,,0.01,1.000000,,2013-03-02 12:53:00,
2013-03-02 06:01:00,29.0,27.0,-100.00,East,95,2.0,7.0,92,0.00,,,0.01,1.000000,,2013-03-02 13:01:00,
2013-03-02 06:11:00,29.0,27.0,-100.00,East,95,2.0,7.0,92,0.00,,,0.01,1.000000,,2013-03-02 13:11:00,
2013-03-02 06:42:00,29.0,27.0,-100.00,ESE,114,3.0,7.0,92,0.00,,,0.01,1.000000,,2013-03-02 13:42:00,
2013-03-02 06:52:00,29.0,27.0,-100.00,ESE,114,3.0,7.0,92,0.00,,,0.01,1.000000,,2013-03-02 13:52:00,
2013-03-02 07:01:00,29.0,27.0,-100.00,ESE,114,3.0,7.0,92,0.00,,,0.01,1.000000,,2013-03-02 14:01:00,
2013-03-02 07:11:00,29.0,27.0,-100.00,ESE,114,3.0,7.0,92,0.00,,,0.01,1.000000,,2013-03-02 14:11:00,
2013-03-02 07:32:00,28.0,27.0,-100.00,ESE,106,2.0,5.0,94,0.00,,,0.00,1.000000,,2013-03-02 14:32:00,
2013-03-02 07:42:00,28.0,27.0,-100.00,ESE,106,2.0,5.0,94,0.00,,,0.00,1.000000,,2013-03-02 14:42:00,
2013-03-02 07:52:00,28.0,27.0,-100.00,ESE,106,2.0,5.0,94,0.00,,,0.00,1.000000,,2013-03-02 14:52:00,
2013-03-02 08:01:00,28.0,27.0,-100.00,ESE,106,2.0,5.0,94,0.00,,,0.00,1.000000,,2013-03-02 15:01:00,
2013-03-02 08:11:00,28.0,27.0,-100.00,ESE,106,2.0,5.0,94,0.00,,,0.00,1.000000,,2013-03-02 15:11:00,
2013-03-02 08:32:00,28.0,27.0,-100.00,ESE,113,2.0,5.0,94,0.00,,,0.00,1.000000,,2013-03-02 15:32:00,
2013-03-02 08:42:00,28.0,27.0,-100.00,ESE,113,2.0,5.0,94,0.00,,,0.00,1.000000,,2013-03-02 15:42:00,
2013-03-02 08:52:00,28.0,27.0,-100.00,ESE,113,2.0,5.0,94,0.00,,,0.00,1.000000,,2013-03-02 15:52:00,
2013-03-02 09:01:00,28.0,27.0,-100.00,ESE,113,2.0,5.0,94,0.00,,,0.00,1.000000,,2013-03-02 16:01:00,
2013-03-02 09:11:00,28.0,27.0,-100.00,ESE,113,2.0,5.0,94,0.00,,,0.00,1.000000,,2013-03-02 16:11:00,
2013-03-02 09:32:00,29.0,27.0,-100.00,East,80,2.0,7.0,91,0.00,,,0.00,22.000000,,2013-03-02 16:32:00,
2013-03-02 09:42:00,29.0,27.0,-100.00,East,80,2.0,7.0,91,0.00,,,0.00,22.000000,,2013-03-02 16:42:00,
2013-03-02 09:52:00,29.0,27.0,-100.00,East,80,2.0,7.0,91,0.00,,,0.00,22.000000,,2013-03-02 16:52:00,
2013-03-02 10:01:00,29.0,27.0,-100.00,East,80,2.0,7.0,91,0.00,,,0.00,22.000000,,2013-03-02 17:01:00,
2013-03-02 10:11:00,29.0,27.0,-100.00,East,80,2.0,7.0,91,0.00,,,0.00,22.000000,,2013-03-02 17:11:00,
2013-03-02 10:32:00,35.0,27.0,-100.00,ENE,64,5.0,9.0,72,0.00,,,0.00,128.000000,,2013-03-02 17:32:00,
2013-03-02 10:42:00,35.0,27.0,-100.00,ENE,64,5.0,9.0,72,0.00,,,0.00,128.000000,,2013-03-02 17:42:00,
2013-03-02 10:52:00,35.0,27.0,-100.00,ENE,64,5.0,9.0,72,0.00,,,0.00,128.000000,,2013-03-02 17:52:00,
2013-03-02 11:01:00,35.0,27.0,-100.00,ENE,64,5.0,9.0,72,0.00,,,0.00,128.000000,,2013-03-02 18:01:00,
2013-03-02 11:11:00,35.0,27.0,-100.00,ENE,64,5.0,9.0,72,0.00,,,0.00,128.000000,,2013-03-02 18:11:00,
2013-03-02 11:32:00,42.0,29.0,-100.00,NNE,19,4.0,11.0,59,0.00,,,0.00,277.000000,,2013-03-02 18:32:00,
2013-03-02 11:42:00,42.0,29.0,-100.00,NNE,19,4.0,11.0,59,0.00,,,0.00,277.000000,,2013-03-02 18:42:00,
2013-03-02 11:52:00,42.0,29.0,-100.00,NNE,19,4.0,11.0,59,0.00,,,0.00,277.000000,,2013-03-02 18:52:00,
2013-03-02 12:01:00,42.0,29.0,-100.00,NNE,19,4.0,11.0,59,0.00,,,0.00,277.000000,,2013-03-02 19:01:00,
2013-03-02 12:11:00,42.0,29.0,-100.00,NNE,19,4.0,11.0,59,0.00,,,0.00,277.000000,,2013-03-02 19:11:00,
2013-03-02 12:42:00,48.0,29.0,-100.00,North,2,3.0,10.0,47,0.00,,,0.00,352.000000,,2013-03-02 19:42:00,
2013-03-02 12:52:00,48.0,29.0,-100.00,North,2,3.0,10.0,47,0.00,,,0.00,352.000000,,2013-03-02 19:52:00,
2013-03-02 13:01:00,48.0,29.0,-100.00,North,2,3.0,10.0,47,0.00,,,0.00,352.000000,,2013-03-02 20:01:00,
2013-03-02 13:11:00,48.0,29.0,-100.00,North,2,3.0,10.0,47,0.00,,,0.00,352.000000,,2013-03-02 20:11:00,
2013-03-02 13:32:00,51.0,28.0,-100.00,North,355,3.0,7.0,41,0.00,,,0.00,344.000000,,2013-03-02 20:32:00,
2013-03-02 13:42:00,51.0,28.0,-100.00,North,355,3.0,7.0,41,0.00,,,0.00,344.000000,,2013-03-02 20:42:00,
2013-03-02 13:52:00,51.0,28.0,-100.00,North,355,3.0,7.0,41,0.00,,,0.00,344.000000,,2013-03-02 20:52:00,
2013-03-02 14:02:00,51.0,28.0,-100.00,North,355,3.0,7.0,41,0.00,,,0.00,344.000000,,2013-03-02 21:02:00,
2013-03-02 14:11:00,51.0,28.0,-100.00,North,355,3.0,7.0,41,0.00,,,0.00,344.000000,,2013-03-02 21:11:00,
2013-03-02 14:32:00,54.0,26.0,-100.00,ENE,62,4.0,9.0,33,0.00,,,0.00,270.000000,,2013-03-02 21:32:00,
2013-03-02 14:42:00,54.0,26.0,-100.00,ENE,62,4.0,9.0,33,0.00,,,0.00,270.000000,,2013-03-02 21:42:00,
2013-03-02 14:52:00,54.0,26.0,-100.00,ENE,62,4.0,9.0,33,0.00,,,0.00,270.000000,,2013-03-02 21:52:00,
2013-03-02 15:01:00,54.0,26.0,-100.00,ENE,62,4.0,9.0,33,0.00,,,0.00,270.000000,,2013-03-02 22:01:00,
2013-03-02 15:11:00,54.0,26.0,-100.00,ENE,62,4.0,9.0,33,0.00,,,0.00,270.000000,,2013-03-02 22:11:00,
2013-03-02 15:42:00,56.0,25.0,-100.00,NE,41,5.0,9.0,30,0.00,,,0.00,276.000000,,2013-03-02 22:42:00,
2013-03-02 15:52:00,56.0,25.0,-100.00,NE,41,5.0,9.0,30,0.00,,,0.00,276.000000,,2013-03-02 22:52:00,
2013-03-02 16:32:00,57.0,19.0,-100.00,North,8,3.0,8.0,22,-99.99,,,0.00,265.000000,,2013-03-02 23:32:00,
2013-03-02 17:32:00,56.0,23.0,-100.00,NNE,17,2.0,7.0,28,-99.99,,,0.00,196.000000,,2013-03-03 00:32:00,
2013-03-02 18:32:00,50.0,28.0,-100.00,South,173,1.0,7.0,42,-99.99,,,0.00,113.000000,,2013-03-03 01:32:00,
2013-03-02 19:11:00,50.0,28.0,-100.00,South,173,1.0,7.0,42,-99.99,,,0.00,113.000000,,2013-03-03 02:11:00,
2013-03-02 19:32:00,43.0,30.0,-100.00,East,79,2.0,4.0,60,0.00,,,0.00,33.000000,,2013-03-03 02:32:00,
2013-03-02 19:42:00,43.0,30.0,-100.00,East,79,2.0,4.0,60,0.00,,,0.00,33.000000,,2013-03-03 02:42:00,
2013-03-02 19:52:00,43.0,30.0,-100.00,East,79,2.0,4.0,60,0.00,,,0.00,33.000000,,2013-03-03 02:52:00,
2013-03-02 20:01:00,43.0,30.0,-100.00,East,79,2.0,4.0,60,0.00,,,0.00,33.000000,,2013-03-03 03:01:00,
2013-03-02 20:11:00,43.0,30.0,-100.00,East,79,2.0,4.0,60,0.00,,,0.00,33.000000,,2013-03-03 03:11:00,
2013-03-02 20:32:00,40.0,30.0,-100.00,SSE,154,0.0,4.0,68,0.00,,,0.00,1.000000,,2013-03-03 03:32:00,
2013-03-02 20:42:00,40.0,30.0,-100.00,SSE,154,0.0,4.0,68,0.00,,,0.00,1.000000,,2013-03-03 03:42:00,
2013-03-02 20:52:00,40.0,30.0,-100.00,SSE,154,0.0,4.0,68,0.00,,,0.00,1.000000,,2013-03-03 03:52:00,
2013-03-02 21:01:00,40.0,30.0,-100.00,SSE,154,0.0,4.0,68,0.00,,,0.00,1.000000,,2013-03-03 04:01:00,
2013-03-02 21:11:00,40.0,30.0,-100.00,SSE,154,0.0,4.0,68,0.00,,,0.00,1.000000,,2013-03-03 04:11:00,
2013-03-02 21:32:00,38.0,31.0,-100.00,ENE,75,1.0,3.0,76,0.00,,,0.00,1.000000,,2013-03-03 04:32:00,
2013-03-02 21:42:00,38.0,31.0,-100.00,ENE,75,1.0,3.0,76,0.00,,,0.00,1.000000,,2013-03-03 04:42:00,
2013-03-02 21:52:00,38.0,31.0,-100.00,ENE,75,1.0,3.0,76,0.00,,,0.00,1.000000,,2013-03-03 04:52:00,
2013-03-02 22:01:00,38.0,31.0,-100.00,ENE,75,1.0,3.0,76,0.00,,,0.00,1.000000,,2013-03-03 05:01:00,
2013-03-02 22:11:00,38.0,31.0,-100.00,ENE,75,1.0,3.0,76,0.00,,,0.00,1.000000,,2013-03-03 05:11:00,
2013-03-02 22:32:00,38.0,31.0,-100.00,ENE,65,2.0,4.0,75,0.00,,,0.00,1.000000,,2013-03-03 05:32:00,
2013-03-02 22:42:00,38.0,31.0,-100.00,ENE,65,2.0,4.0,75,0.00,,,0.00,1.000000,,2013-03-03 05:42:00,
2013-03-02 22:52:00,38.0,31.0,-100.00,ENE,65,2.0,4.0,75,0.00,,,0.00,1.000000,,2013-03-03 05:52:00,
2013-03-02 23:01:00,38.0,31.0,-100.00,ENE,65,2.0,4.0,75,0.00,,,0.00,1.000000,,2013-03-03 06:01:00,
2013-03-02 23:11:00,38.0,31.0,-100.00,ENE,65,2.0,4.0,75,0.00,,,0.00,1.000000,,2013-03-03 06:11:00,
2013-03-02 23:32:00,38.0,32.0,-100.00,East,97,2.0,4.0,79,0.00,,,0.00,1.000000,,2013-03-03 06:32:00,
2013-03-02 23:42:00,38.0,32.0,-100.00,East,97,2.0,4.0,79,0.00,,,0.00,1.000000,,2013-03-03 06:42:00,
2013-03-02 23:52:00,38.0,32.0,-100.00,East,97,2.0,4.0,79,0.00,,,0.00,1.000000,,2013-03-03 06:52:00,